User: anonymous   Login
Location: Melbourne
(37.8170°S, 144.9670°E)
Time: 00:25:35
(UTC+11:00)
Language:

CZ-3 R/B - Orbit

View from above orbital plane
View from above orbital plane
View from above satellite
View from above satellite

Ground track
Ground track

The orbit data is extracted from the following two-line orbital elements,

1 29517U 06048B   17053.08752486  .00013786  00000-0  48119-3 0  9999
2 29517  28.4748 342.9412 4395711 307.2324  20.1902  6.77031758159738
Epoch (UTC): 22 February 2017 02:06:02
Eccentricity: 0.4395711
inclination: 28.4748°
perigee height: 236 km
apogee height: 10613 km
right ascension of ascending node: 342.9412°
argument of perigee: 307.2324°
revolutions per day: 6.77031758
mean anomaly at epoch: 20.1902°
orbit number at epoch: 15973

The dashed part of the orbit path shows where the satellite is in the earth's shadow,  

DLR